Weather History for Zephyrhills, FL

Change the Weather History Date:

Saturday, December 15, 2012

  Actual Average (KPCM) Record (KPCM)
Temperature  
Mean Temperature 64 °F -  
Max Temperature 77 °F 75 °F 87 °F (1956)
Min Temperature 51 °F 53 °F 25 °F (1944)
Degree Days  
Heating Degree Days 1    
Growing Degree Days 14 (Base 50)    
Moisture  
Dew Point 57 °F    
Average Humidity 89    
Maximum Humidity 100    
Minimum Humidity 47    
Precipitation  
Precipitation 0.00 in - - ()
Sea Level Pressure  
Sea Level Pressure 30.12 in    
Wind  
Wind Speed - (North)    
Max Wind Speed -    
Max Gust Speed -    
Visibility 6 miles    
Events Fog    
Averages and records for this station are not official NWS values.
T = Trace of Precipitation, MM = Missing Value Source: NWS Daily Summary

Daily Weather History Graph

Daily Weather History Graph

Search for Another Location

Airport:

Trip Planner

Search our weather history database for the weather conditions in past years. The results will help you decide how hot, cold, wet, or windy it might be!

Date:

Astronomy

Dec. 15, 2012 Rise Set
Actual Time 7:13 AM EST 5:34 PM EST
Civil Twilight 6:47 AM EST 6:00 PM EST
Nautical Twilight 6:18 AM EST 6:30 PM EST
Astronomical Twilight 5:49 AM EST 6:58 PM EST
Moon 9:13 AM EST (12/15) 8:27 PM EST (12/15)
Length of Visible Light 11h 13m
Length of Day
10h 21m
Waxing Crescent, 8% of the Moon is Illuminated
Dec 15
Waxing Crescent
Dec 20
First Quarter
Dec 28
Full
Jan 4
Last Quarter
Jan 11
New

Hourly Weather History & Observations

Time (EST) Temp. Dew Point Humidity Pressure Visibility Wind Dir Wind Speed Gust Speed Precip Events Conditions
12:15 AM 51.8 °F 51.8 °F 100% 30.15 in 4.0 mi North - - N/A   Clear
12:35 AM 51.8 °F 51.8 °F 100% 30.13 in 3.0 mi North - - N/A   Clear
12:55 AM 51.8 °F 51.8 °F 100% 30.13 in 3.0 mi North - - N/A   Clear
1:35 AM 51.8 °F 51.8 °F 100% 30.13 in 3.0 mi North - - N/A   Clear
1:55 AM 51.8 °F 51.8 °F 100% 30.13 in 5.0 mi North - - N/A   Clear
2:15 AM 51.8 °F 51.8 °F 100% 30.13 in 5.0 mi North - - N/A   Clear
2:35 AM 51.8 °F 51.8 °F 100% 30.13 in 5.0 mi North - - N/A   Scattered Clouds
2:55 AM 53.6 °F 53.6 °F 100% 30.14 in 3.0 mi North - - N/A   Overcast
3:15 AM 53.6 °F 53.6 °F 100% 30.15 in 0.8 mi North - - N/A   Overcast
3:35 AM 53.6 °F 53.6 °F 100% 30.13 in 0.5 mi North - - N/A Fog Fog
3:55 AM 53.6 °F 53.6 °F 100% 30.13 in 0.5 mi North - - N/A Fog Fog
4:15 AM 53.6 °F 53.6 °F 100% 30.13 in 0.5 mi North - - N/A Fog Fog
4:35 AM 53.6 °F 53.6 °F 100% 30.12 in 0.5 mi North - - N/A Fog Fog
4:55 AM 53.6 °F 53.6 °F 100% 30.11 in 0.2 mi North - - N/A Fog Fog
5:15 AM 53.6 °F 53.6 °F 100% 30.11 in 0.5 mi North - - N/A Fog Fog
5:35 AM 53.6 °F 53.6 °F 100% 30.12 in 0.5 mi North - - N/A Fog Fog
5:55 AM 55.4 °F 55.4 °F 100% 30.12 in 0.5 mi North - - N/A Fog Fog
6:15 AM 55.4 °F 55.4 °F 100% 30.13 in 0.5 mi North - - N/A Fog Fog
6:35 AM 55.4 °F 55.4 °F 100% 30.13 in 0.5 mi North - - N/A Fog Fog
6:55 AM 55.4 °F 55.4 °F 100% 30.14 in 0.5 mi North - - N/A Fog Fog
7:15 AM 55.4 °F 55.4 °F 100% 30.14 in 0.2 mi North - - N/A Fog Fog
7:35 AM 55.4 °F 55.4 °F 100% 30.15 in 0.2 mi North - - N/A Fog Fog
7:55 AM 55.4 °F 55.4 °F 100% 30.16 in 0.2 mi North - - N/A Fog Fog
8:15 AM 55.4 °F 55.4 °F 100% 30.17 in 0.2 mi North - - N/A Fog Fog
8:35 AM 55.4 °F 55.4 °F 100% 30.17 in 0.5 mi North - - N/A Fog Fog
8:55 AM 57.2 °F 55.4 °F 94% 30.17 in 0.5 mi North - - N/A Fog Fog
9:15 AM 57.2 °F 57.2 °F 100% 30.18 in 0.5 mi North - - N/A Fog Fog
9:35 AM 59.0 °F 59.0 °F 100% 30.18 in 0.8 mi North - - N/A   Overcast
9:55 AM 59.0 °F 59.0 °F 100% 30.19 in 2.0 mi North - - N/A   Overcast
10:15 AM 59.0 °F 59.0 °F 100% 30.19 in 5.0 mi North - - N/A   Overcast
10:35 AM 60.8 °F 59.0 °F 94% 30.19 in 5.0 mi North - - N/A   Overcast
10:55 AM 60.8 °F 60.8 °F 100% 30.19 in 10.0 mi North - - N/A   Overcast
11:15 AM 60.8 °F 60.8 °F 100% 30.18 in 10.0 mi North - - N/A   Overcast
11:35 AM 64.4 °F 62.6 °F 94% 30.17 in 10.0 mi North - - N/A   Overcast
11:55 AM 68.0 °F 62.6 °F 83% 30.16 in 10.0 mi North - - N/A   Scattered Clouds
12:15 PM 71.6 °F 64.4 °F 78% 30.15 in 10.0 mi North - - N/A   Clear
12:35 PM 71.6 °F 64.4 °F 78% 30.13 in 10.0 mi North - - N/A   Mostly Cloudy
12:55 PM 73.4 °F 66.2 °F 78% 30.12 in 10.0 mi North - - N/A   Scattered Clouds
1:15 PM 77.0 °F 64.4 °F 65% 30.11 in 10.0 mi North - - N/A   Clear
1:35 PM 77.0 °F 60.8 °F 57% 30.10 in 10.0 mi North - - N/A   Scattered Clouds
1:55 PM 77.0 °F 60.8 °F 57% 30.09 in 10.0 mi North - - N/A   Scattered Clouds
2:15 PM 77.0 °F 59.0 °F 54% 30.09 in 10.0 mi North - - N/A   Scattered Clouds
2:35 PM 77.0 °F 55.4 °F 47% 30.09 in 10.0 mi North - - N/A   Clear
2:55 PM 77.0 °F 57.2 °F 50% 30.08 in 10.0 mi North - - N/A   Clear
3:15 PM 77.0 °F 57.2 °F 50% 30.08 in 10.0 mi North - - N/A   Scattered Clouds
3:35 PM 75.2 °F 55.4 °F 50% 30.09 in 10.0 mi North - - N/A   Mostly Cloudy
3:55 PM 75.2 °F 57.2 °F 53% 30.08 in 10.0 mi North - - N/A   Scattered Clouds
4:15 PM 77.0 °F 59.0 °F 54% 30.08 in 10.0 mi North - - N/A   Scattered Clouds
4:35 PM 77.0 °F 57.2 °F 50% 30.08 in 10.0 mi North - - N/A   Clear
5:15 PM 73.4 °F 55.4 °F 53% 30.08 in 10.0 mi North - - N/A   Scattered Clouds
5:35 PM 71.6 °F 57.2 °F 60% 30.09 in 10.0 mi North - - N/A   Mostly Cloudy
5:55 PM 68.0 °F 59.0 °F 73% 30.10 in 10.0 mi North - - N/A   Scattered Clouds
6:15 PM 64.4 °F 57.2 °F 77% 30.09 in 10.0 mi North - - N/A   Clear
6:35 PM 62.6 °F 60.8 °F 94% 30.10 in 10.0 mi North - - N/A   Clear
6:55 PM 62.6 °F 59.0 °F 88% 30.10 in 10.0 mi North - - N/A   Clear
7:15 PM 60.8 °F 60.8 °F 100% 30.09 in 10.0 mi North - - N/A   Clear
7:35 PM 60.8 °F 59.0 °F 94% 30.10 in 10.0 mi North - - N/A   Clear
7:55 PM 59.0 °F 59.0 °F 100% 30.10 in 10.0 mi North - - N/A   Clear
8:15 PM 59.0 °F 59.0 °F 100% 30.10 in 10.0 mi North - - N/A   Clear
8:35 PM 59.0 °F 57.2 °F 94% 30.10 in 10.0 mi North - - N/A   Clear
8:55 PM 59.0 °F 57.2 °F 94% 30.11 in 10.0 mi North - - N/A   Clear
9:15 PM 59.0 °F 59.0 °F 100% 30.11 in 10.0 mi North - - N/A   Clear
9:35 PM 60.8 °F 59.0 °F 94% 30.12 in 10.0 mi North - - N/A   Clear
9:55 PM 55.4 °F 55.4 °F 100% 30.10 in 10.0 mi North - - N/A   Clear
10:15 PM 59.0 °F 59.0 °F 100% 30.10 in 10.0 mi North - - N/A   Clear
10:35 PM 59.0 °F 59.0 °F 100% 30.11 in 10.0 mi North - - N/A   Clear
10:55 PM 57.2 °F 55.4 °F 94% 30.09 in 10.0 mi North - - N/A   Clear
11:15 PM 59.0 °F 59.0 °F 100% 30.09 in 10.0 mi North - - N/A   Clear
11:35 PM 59.0 °F 57.2 °F 94% 30.10 in 10.0 mi North - - N/A   Clear
11:55 PM 55.4 °F 55.4 °F 100% 30.09 in 10.0 mi North - - N/A   Clear